| time (UTC) | temp C | wind direction | speed KPH | gust KPH | rain 1hr cm | rain 24hr cm | rain mn cm | humidity % | barometer mb |
| 20260905120416 | 25 | 31 | 1.6 | 3.2 | 0.00 | 0.00 | 0.00 | 94 | 1012.8 |
| 20260905115911 | 25 | 98 | 1.6 | 1.6 | 0.00 | 0.00 | 0.00 | 95 | 1012.7 |
| 20260905115410 | 25 | 270 | 0.0 | 0.0 | 0.00 | 0.00 | 0.00 | 95 | 1012.6 |
| 20260905114905 | 25 | 216 | 0.0 | 0.0 | 0.00 | 0.00 | 0.00 | 95 | 1012.6 |
| 20260905114404 | 25 | 170 | 0.0 | 0.0 | 0.00 | 0.00 | 0.00 | 95 | 1012.4 |
| 20260905113904 | 25 | 31 | 0.0 | 1.6 | 0.00 | 0.00 | 0.00 | 95 | 1012.6 |
| 20260905113359 | 25 | 51 | 3.2 | 3.2 | 0.00 | 0.00 | 0.00 | 95 | 1012.2 |
| 20260905112854 | 25 | 38 | 0.0 | 3.2 | 0.00 | 0.00 | 0.00 | 95 | 1012.1 |
| 20260905112349 | 25 | 137 | 0.0 | 3.2 | 0.00 | 0.00 | 0.00 | 95 | 1012.2 |
| 20260905111844 | 25 | 297 | 0.0 | 0.0 | 0.00 | 0.00 | 0.00 | 95 | 1012.1 |
| 20260905111339 | 25 | 158 | 0.0 | 1.6 | 0.00 | 0.00 | 0.00 | 95 | 1012.3 |
| 20260905110838 | 25 | 40 | 1.6 | 3.2 | 0.00 | 0.00 | 0.00 | 95 | 1012.1 |
| 20260905110332 | 25 | 358 | 3.2 | 3.2 | 0.00 | 0.00 | 0.00 | 95 | 1012.2 |
| 20260905105828 | 25 | 238 | 0.0 | 1.6 | 0.00 | 0.00 | 0.00 | 95 | 1012.2 |
| 20260905105327 | 25 | 137 | 0.0 | 3.2 | 0.00 | 0.00 | 0.00 | 95 | 1011.9 |
| 20260905104821 | 25 | 85 | 0.0 | 1.6 | 0.00 | 0.00 | 0.00 | 95 | 1012.1 |
| 20260905104318 | 25 | 230 | 0.0 | 3.2 | 0.00 | 0.00 | 0.00 | 95 | 1011.8 |
| 20260905103817 | 25 | 205 | 0.0 | 4.8 | 0.00 | 0.00 | 0.00 | 95 | 1011.7 |
| 20260905103313 | 25 | 36 | 0.0 | 1.6 | 0.00 | 0.00 | 0.00 | 96 | 1011.7 |
| 20260905102809 | 25 | 138 | 0.0 | 1.6 | 0.00 | 0.00 | 0.00 | 96 | 1011.6 |
| 20260905102306 | 25 | 7 | 0.0 | 3.2 | 0.00 | 0.00 | 0.00 | 96 | 1011.7 |
| 20260905101804 | 25 | 25 | 0.0 | 1.6 | 0.00 | 0.00 | 0.00 | 96 | 1011.6 |
| 20260905101303 | 25 | 147 | 1.6 | 1.6 | 0.00 | 0.00 | 0.00 | 96 | 1011.5 |
| 20260905100757 | 25 | 6 | 0.0 | 1.6 | 0.00 | 0.00 | 0.00 | 96 | 1011.7 |
| 20260905100254 | 25 | 170 | 0.0 | 1.6 | 0.00 | 0.00 | 0.00 | 96 | 1011.8 |
| 20260905095753 | 25 | 13 | 0.0 | 0.0 | 0.00 | 0.00 | 0.00 | 96 | 1011.7 |
| 20260905095247 | 25 | 130 | 0.0 | 1.6 | 0.00 | 0.00 | 0.00 | 95 | 1011.7 |
| 20260905094742 | 25 | 110 | 0.0 | 3.2 | 0.00 | 0.00 | 0.00 | 95 | 1011.8 |
| 20260905094238 | 25 | 122 | 0.0 | 0.0 | 0.00 | 0.00 | 0.00 | 95 | 1012.0 |
| 20260905093736 | 25 | 150 | 0.0 | 3.2 | 0.00 | 0.00 | 0.00 | 95 | 1012.0 |
| 20260905093233 | 25 | 141 | 0.0 | 1.6 | 0.00 | 0.00 | 0.00 | 95 | 1012.0 |
| 20260905092728 | 25 | 88 | 0.0 | 1.6 | 0.00 | 0.00 | 0.00 | 95 | 1011.9 |
| 20260905092223 | 25 | 140 | 3.2 | 4.8 | 0.00 | 0.00 | 0.00 | 95 | 1011.7 |
| 20260905091722 | 25 | 111 | 0.0 | 3.2 | 0.00 | 0.00 | 0.00 | 95 | 1012.2 |
| 20260905091218 | 25 | 81 | 0.0 | 3.2 | 0.00 | 0.00 | 0.00 | 95 | 1012.0 |
| 20260905090716 | 25 | 111 | 0.0 | 3.2 | 0.00 | 0.00 | 0.00 | 95 | 1011.9 |
| 20260905090213 | 25 | 98 | 0.0 | 1.6 | 0.00 | 0.00 | 0.00 | 95 | 1012.0 |
| 20260905085712 | 25 | 78 | 0.0 | 3.2 | 0.00 | 0.00 | 0.00 | 95 | 1011.6 |
| 20260905085207 | 25 | 6 | 0.0 | 1.6 | 0.00 | 0.00 | 0.00 | 95 | 1011.8 |
| 20260905084707 | 25 | 333 | 0.0 | 1.6 | 0.00 | 0.00 | 0.00 | 95 | 1011.5 |
| 20260905084207 | 25 | 195 | 0.0 | 1.6 | 0.00 | 0.00 | 0.00 | 95 | 1011.6 |
| 20260905083701 | 25 | 155 | 3.2 | 3.2 | 0.00 | 0.00 | 0.00 | 95 | 1011.5 |
| 20260905083158 | 25 | 96 | 0.0 | 1.6 | 0.00 | 0.00 | 0.00 | 95 | 1011.5 |
| 20260905082654 | 25 | 13 | 0.0 | 3.2 | 0.00 | 0.00 | 0.00 | 94 | 1011.5 |
| 20260905082149 | 25 | 6 | 1.6 | 3.2 | 0.00 | 0.00 | 0.00 | 94 | 1011.3 |
| 20260905081649 | 25 | 193 | 1.6 | 3.2 | 0.00 | 0.00 | 0.00 | 95 | 1011.4 |
| 20260905081144 | 25 | 237 | 0.0 | 1.6 | 0.00 | 0.00 | 0.00 | 95 | 1011.4 |
| 20260905080644 | 25 | 176 | 0.0 | 1.6 | 0.00 | 0.00 | 0.00 | 95 | 1011.6 |
| 20260905080143 | 25 | 11 | 1.6 | 3.2 | 0.00 | 0.00 | 0.00 | 95 | 1011.4 |
| 20260905075643 | 25 | 296 | 0.0 | 3.2 | 0.00 | 0.00 | 0.00 | 95 | 1011.7 |
| 20260905075142 | 25 | 344 | 1.6 | 4.8 | 0.00 | 0.00 | 0.00 | 95 | 1011.2 |
| 20260905074641 | 25 | 292 | 3.2 | 3.2 | 0.00 | 0.00 | 0.00 | 96 | 1011.6 |
| 20260905074137 | 25 | 167 | 0.0 | 1.6 | 0.00 | 0.00 | 0.00 | 96 | 1011.8 |
| 20260905073633 | 25 | 193 | 0.0 | 1.6 | 0.00 | 0.00 | 0.00 | 96 | 1011.7 |
| 20260905073128 | 25 | 10 | 1.6 | 3.2 | 0.00 | 0.00 | 0.00 | 96 | 1011.8 |
| 20260905072627 | 25 | 137 | 0.0 | 1.6 | 0.00 | 0.00 | 0.00 | 96 | 1011.8 |
| 20260905072122 | 25 | 135 | 0.0 | 1.6 | 0.00 | 0.00 | 0.00 | 96 | 1011.9 |
| 20260905071619 | 25 | 250 | 0.0 | 1.6 | 0.00 | 0.00 | 0.00 | 95 | 1012.1 |
| 20260905071114 | 25 | 271 | 0.0 | 0.0 | 0.00 | 0.00 | 0.00 | 95 | 1012.2 |
| 20260905070610 | 25 | 211 | 0.0 | 0.0 | 0.00 | 0.00 | 0.00 | 95 | 1012.1 |
| 20260905070105 | 25 | 291 | 0.0 | 0.0 | 0.00 | 0.00 | 0.00 | 95 | 1012.2 |
| 20260905065603 | 25 | 291 | 0.0 | 0.0 | 0.00 | 0.00 | 0.00 | 94 | 1012.4 |
| 20260905065058 | 25 | 237 | 0.0 | 0.0 | 0.00 | 0.00 | 0.00 | 94 | 1012.2 |
| 20260905064553 | 25 | 56 | 0.0 | 3.2 | 0.00 | 0.00 | 0.00 | 94 | 1012.1 |
| 20260905064048 | 25 | 144 | 0.0 | 3.2 | 0.00 | 0.00 | 0.00 | 95 | 1012.2 |
| 20260905063547 | 25 | 137 | 0.0 | 1.6 | 0.00 | 0.00 | 0.00 | 95 | 1012.6 |
| 20260905063044 | 25 | 13 | 0.0 | 0.0 | 0.00 | 0.00 | 0.00 | 95 | 1012.4 |
| 20260905062538 | 25 | 36 | 0.0 | 0.0 | 0.00 | 0.00 | 0.00 | 95 | 1012.3 |
| 20260905062033 | 25 | 91 | 0.0 | 0.0 | 0.00 | 0.00 | 0.00 | 94 | 1012.3 |
| 20260905061528 | 25 | 223 | 0.0 | 0.0 | 0.00 | 0.00 | 0.00 | 94 | 1012.4 |
| 20260905061027 | 25 | 223 | 0.0 | 1.6 | 0.00 | 0.00 | 0.00 | 94 | 1012.5 |
| 20260905060523 | 25 | 144 | 0.0 | 1.6 | 0.00 | 0.00 | 0.00 | 94 | 1012.6 |
| 20260905060019 | 25 | 77 | 0.0 | 3.2 | 0.00 | 0.00 | 0.00 | 94 | 1012.5 |
| 20260905055517 | 25 | 317 | 1.6 | 3.2 | 0.00 | 0.00 | 0.00 | 94 | 1012.7 |
| 20260905055012 | 25 | 308 | 0.0 | 3.2 | 0.00 | 0.00 | 0.00 | 94 | 1012.5 |
| 20260905054508 | 25 | 299 | 0.0 | 4.8 | 0.00 | 0.00 | 0.00 | 94 | 1012.6 |
| 20260905054003 | 25 | 144 | 0.0 | 1.6 | 0.00 | 0.00 | 0.00 | 94 | 1012.7 |
| 20260905053457 | 25 | 100 | 0.0 | 3.2 | 0.00 | 0.00 | 0.00 | 93 | 1012.7 |
| 20260905052953 | 25 | 190 | 0.0 | 1.6 | 0.00 | 0.00 | 0.00 | 93 | 1012.8 |
| 20260905052453 | 25 | 315 | 0.0 | 0.0 | 0.00 | 0.00 | 0.00 | 93 | 1013.0 |
| 20260905051952 | 25 | 144 | 0.0 | 3.2 | 0.00 | 0.00 | 0.00 | 93 | 1012.8 |
| 20260905051447 | 25 | 172 | 0.0 | 4.8 | 0.00 | 0.00 | 0.00 | 93 | 1012.7 |
| 20260905050945 | 25 | 305 | 0.0 | 0.0 | 0.00 | 0.00 | 0.00 | 93 | 1012.9 |
| 20260905050440 | 25 | 80 | 3.2 | 3.2 | 0.00 | 0.00 | 0.00 | 93 | 1013.3 |
| 20260905045936 | 25 | 249 | 0.0 | 3.2 | 0.00 | 0.00 | 0.00 | 93 | 1013.3 |
| 20260905045431 | 25 | 325 | 0.0 | 1.6 | 0.00 | 0.00 | 0.00 | 93 | 1013.1 |
| 20260905044927 | 25 | 134 | 0.0 | 0.0 | 0.00 | 0.00 | 0.00 | 93 | 1013.1 |
| 20260905044421 | 25 | 86 | 0.0 | 3.2 | 0.00 | 0.00 | 0.00 | 93 | 1013.0 |
| 20260905043921 | 25 | 186 | 0.0 | 0.0 | 0.00 | 0.00 | 0.00 | 93 | 1013.3 |
| 20260905043420 | 25 | 306 | 0.0 | 1.6 | 0.00 | 0.00 | 0.00 | 93 | 1012.8 |
| 20260905042915 | 25 | 87 | 1.6 | 1.6 | 0.00 | 0.00 | 0.00 | 93 | 1013.0 |
| 20260905042410 | 25 | 198 | 0.0 | 3.2 | 0.00 | 0.00 | 0.00 | 93 | 1013.0 |
| 20260905041905 | 25 | 125 | 0.0 | 4.8 | 0.00 | 0.00 | 0.00 | 92 | 1013.0 |
| 20260905041401 | 25 | 54 | 0.0 | 3.2 | 0.00 | 0.00 | 0.00 | 92 | 1013.2 |
| 20260905040855 | 25 | 170 | 1.6 | 3.2 | 0.00 | 0.00 | 0.00 | 93 | 1013.2 |
| 20260905040355 | 25 | 322 | 3.2 | 6.4 | 0.00 | 0.00 | 0.00 | 93 | 1013.2 |
| 20260905035854 | 25 | 91 | 3.2 | 3.2 | 0.00 | 0.15 | 0.15 | 94 | 1013.2 |
| 20260905035349 | 25 | 110 | 0.0 | 4.8 | 0.00 | 0.15 | 0.15 | 94 | 1013.0 |
| 20260905034846 | 25 | 21 | 0.0 | 1.6 | 0.00 | 0.15 | 0.15 | 94 | 1012.8 |
| 20260905034342 | 25 | 102 | 0.0 | 1.6 | 0.00 | 0.15 | 0.15 | 94 | 1012.9 |
| 20260905033840 | 25 | 308 | 0.0 | 0.0 | 0.00 | 0.15 | 0.15 | 94 | 1013.0 |
| 20260905033336 | 25 | 10 | 0.0 | 1.6 | 0.00 | 0.15 | 0.15 | 94 | 1013.1 |
| 20260905032835 | 25 | 205 | 0.0 | 0.0 | 0.00 | 0.15 | 0.15 | 94 | 1013.0 |
| 20260905032330 | 25 | 6 | 0.0 | 0.0 | 0.00 | 0.15 | 0.15 | 94 | 1013.2 |
| 20260905031825 | 25 | 20 | 0.0 | 0.0 | 0.00 | 0.15 | 0.15 | 94 | 1012.9 |
| 20260905031321 | 25 | 236 | 0.0 | 1.6 | 0.00 | 0.15 | 0.15 | 94 | 1013.0 |
| 20260905030816 | 25 | 44 | 0.0 | 0.0 | 0.00 | 0.15 | 0.15 | 94 | 1013.4 |
| 20260905030312 | 25 | 296 | 0.0 | 0.0 | 0.00 | 0.15 | 0.15 | 93 | 1013.3 |
| 20260905025811 | 25 | 69 | 1.6 | 3.2 | 0.00 | 0.15 | 0.15 | 93 | 1013.5 |
| 20260905025307 | 25 | 287 | 0.0 | 1.6 | 0.00 | 0.15 | 0.15 | 93 | 1013.4 |
| 20260905024803 | 25 | 248 | 0.0 | 3.2 | 0.00 | 0.15 | 0.15 | 93 | 1013.4 |
| 20260905024258 | 26 | 123 | 0.0 | 1.6 | 0.00 | 0.15 | 0.15 | 93 | 1013.4 |
| 20260905023753 | 26 | 210 | 0.0 | 1.6 | 0.00 | 0.15 | 0.15 | 93 | 1013.5 |
| 20260905023248 | 26 | 272 | 1.6 | 3.2 | 0.00 | 0.15 | 0.15 | 92 | 1013.6 |
| 20260905022747 | 26 | 310 | 0.0 | 3.2 | 0.00 | 0.15 | 0.15 | 92 | 1013.7 |
| 20260905022243 | 26 | 297 | 0.0 | 4.8 | 0.00 | 0.15 | 0.15 | 94 | 1013.8 |
| 20260905021742 | 26 | 278 | 0.0 | 4.8 | 0.00 | 0.15 | 0.15 | 94 | 1014.1 |
| 20260905021237 | 26 | 171 | 3.2 | 6.4 | 0.00 | 0.15 | 0.15 | 94 | 1013.7 |
| 20260905020732 | 26 | 214 | 3.2 | 4.8 | 0.00 | 0.15 | 0.15 | 94 | 1013.8 |
| 20260905020227 | 26 | 266 | 3.2 | 3.2 | 0.00 | 0.15 | 0.15 | 95 | 1013.8 |
| 20260905015726 | 26 | 5 | 3.2 | 4.8 | 0.00 | 0.15 | 0.15 | 96 | 1013.7 |
| 20260905015221 | 26 | 227 | 0.0 | 0.0 | 0.00 | 0.15 | 0.15 | 96 | 1013.7 |
| 20260905014719 | 26 | 35 | 1.6 | 3.2 | 0.00 | 0.15 | 0.15 | 96 | 1013.5 |
| 20260905014215 | 26 | 94 | 0.0 | 1.6 | 0.00 | 0.15 | 0.15 | 96 | 1013.5 |
| 20260905013711 | 26 | 120 | 0.0 | 1.6 | 0.00 | 0.15 | 0.15 | 96 | 1013.3 |
| 20260905013207 | 26 | 303 | 0.0 | 0.0 | 0.00 | 0.15 | 0.15 | 96 | 1013.5 |
| 20260905012702 | 26 | 127 | 0.0 | 0.0 | 0.00 | 0.15 | 0.15 | 96 | 1013.6 |
| 20260905012158 | 26 | 177 | 0.0 | 1.6 | 0.00 | 0.15 | 0.15 | 96 | 1013.7 |
| 20260905011654 | 26 | 87 | 0.0 | 1.6 | 0.00 | 0.15 | 0.15 | 96 | 1013.4 |
| 20260905011150 | 26 | 311 | 0.0 | 0.0 | 0.00 | 0.15 | 0.15 | 96 | 1013.3 |
| 20260905010644 | 26 | 19 | 0.0 | 0.0 | 0.00 | 0.15 | 0.15 | 96 | 1013.4 |
| 20260905010140 | 26 | 98 | 0.0 | 1.6 | 0.00 | 0.15 | 0.15 | 96 | 1013.4 |
| 20260905005636 | 26 | 139 | 1.6 | 1.6 | 0.00 | 0.15 | 0.15 | 95 | 1013.2 |
| 20260905005131 | 26 | 201 | 0.0 | 1.6 | 0.00 | 0.15 | 0.15 | 96 | 1013.1 |
| 20260905004631 | 26 | 278 | 0.0 | 0.0 | 0.00 | 0.15 | 0.15 | 96 | 1013.1 |
| 20260905004126 | 26 | 111 | 0.0 | 1.6 | 0.00 | 0.15 | 0.15 | 96 | 1013.1 |
| 20260905003622 | 26 | 264 | 0.0 | 0.0 | 0.00 | 0.15 | 0.15 | 95 | 1013.2 |
| 20260905003118 | 26 | 308 | 0.0 | 0.0 | 0.00 | 0.15 | 0.15 | 95 | 1013.1 |
| 20260905002613 | 26 | 273 | 0.0 | 1.6 | 0.00 | 0.15 | 0.15 | 95 | 1013.2 |
| 20260905002107 | 26 | 134 | 0.0 | 0.0 | 0.00 | 0.15 | 0.15 | 95 | 1013.6 |
| 20260905001557 | 26 | 134 | 0.0 | 1.6 | 0.00 | 0.15 | 0.15 | 94 | 1013.2 |
| 20260905001056 | 26 | 127 | 0.0 | 0.0 | 0.00 | 0.15 | 0.15 | 95 | 1013.3 |
| 20260905000552 | 26 | 56 | 0.0 | 0.0 | 0.00 | 0.15 | 0.15 | 95 | 1013.3 |
| 20260905000048 | 26 | 116 | 0.0 | 0.0 | 0.00 | 0.15 | 0.15 | 94 | 1013.0 |
| 20260904235543 | 26 | 286 | 0.0 | 1.6 | 0.00 | 0.15 | 0.15 | 94 | 1012.9 |
| 20260904235042 | 26 | 206 | 0.0 | 0.0 | 0.00 | 0.15 | 0.15 | 95 | 1013.0 |
| 20260904234542 | 26 | 15 | 0.0 | 0.0 | 0.00 | 0.15 | 0.15 | 95 | 1013.0 |
| 20260904234038 | 26 | 15 | 0.0 | 1.6 | 0.00 | 0.15 | 0.15 | 94 | 1012.8 |
| 20260904233533 | 26 | 94 | 3.2 | 3.2 | 0.00 | 0.15 | 0.15 | 94 | 1013.2 |
| 20260904233029 | 26 | 100 | 3.2 | 4.8 | 0.00 | 0.15 | 0.15 | 94 | 1013.2 |
| 20260904232526 | 26 | 69 | 1.6 | 3.2 | 0.00 | 0.15 | 0.15 | 94 | 1013.1 |
| 20260904232022 | 26 | 181 | 0.0 | 1.6 | 0.00 | 0.15 | 0.15 | 94 | 1013.3 |
| 20260904231518 | 26 | 78 | 1.6 | 1.6 | 0.00 | 0.15 | 0.15 | 94 | 1013.4 |
| 20260904231012 | 26 | 320 | 3.2 | 4.8 | 0.00 | 0.15 | 0.15 | 94 | 1013.2 |
| 20260904230511 | 26 | 223 | 0.0 | 0.0 | 0.00 | 0.15 | 0.15 | 94 | 1013.2 |
| 20260904230007 | 26 | 127 | 1.6 | 3.2 | 0.00 | 0.15 | 0.15 | 93 | 1013.2 |
| 20260904225504 | 26 | 100 | 0.0 | 0.0 | 0.00 | 0.15 | 0.15 | 93 | 1013.0 |
| 20260904225004 | 26 | 254 | 0.0 | 3.2 | 0.00 | 0.15 | 0.15 | 93 | 1013.1 |
| 20260904224500 | 27 | 298 | 3.2 | 4.8 | 0.00 | 0.15 | 0.15 | 93 | 1013.0 |
| 20260904223959 | 26 | 3 | 0.0 | 0.0 | 0.00 | 0.15 | 0.15 | 93 | 1012.9 |
| 20260904223458 | 26 | 34 | 0.0 | 3.2 | 0.05 | 0.15 | 0.15 | 92 | 1012.8 |
| 20260904222954 | 26 | 254 | 1.6 | 3.2 | 0.05 | 0.15 | 0.15 | 92 | 1012.8 |
| 20260904222449 | 26 | 176 | 0.0 | 3.2 | 0.05 | 0.13 | 0.13 | 92 | 1013.1 |
| 20260904221944 | 26 | 295 | 8.0 | 8.0 | 0.13 | 0.13 | 0.13 | 91 | 1013.1 |
| 20260904221438 | 27 | 265 | 3.2 | 11.3 | 0.18 | 0.13 | 0.13 | 90 | 1013.1 |
| 20260904220934 | 28 | 264 | 3.2 | 9.7 | 0.13 | 0.10 | 0.10 | 87 | 1013.2 |
| 20260904220434 | 28 | 290 | 0.0 | 1.6 | 0.00 | 0.10 | 0.10 | 87 | 1013.0 |
| 20260904215929 | 28 | 168 | 0.0 | 3.2 | 0.00 | 0.10 | 0.10 | 86 | 1012.7 |
| 20260904215424 | 28 | 67 | 1.6 | 6.4 | 0.00 | 0.10 | 0.10 | 85 | 1012.6 |
| 20260904214920 | 28 | 149 | 1.6 | 4.8 | 0.00 | 0.10 | 0.10 | 86 | 1012.6 |
| 20260904214416 | 28 | 114 | 4.8 | 8.0 | 0.00 | 0.10 | 0.10 | 85 | 1012.6 |
| 20260904213915 | 28 | 303 | 0.0 | 0.0 | 0.00 | 0.10 | 0.10 | 87 | 1012.7 |
| 20260904213409 | 28 | 218 | 1.6 | 4.8 | 0.00 | 0.10 | 0.10 | 85 | 1012.6 |
| 20260904212905 | 28 | 144 | 0.0 | 4.8 | 0.00 | 0.10 | 0.10 | 85 | 1012.8 |
| 20260904212404 | 28 | 164 | 0.0 | 4.8 | 0.00 | 0.10 | 0.10 | 85 | 1012.6 |
| 20260904211900 | 28 | 97 | 0.0 | 0.0 | 0.00 | 0.10 | 0.10 | 87 | 1012.8 |
| 20260904211355 | 28 | 98 | 3.2 | 4.8 | 0.00 | 0.10 | 0.10 | 87 | 1012.7 |
| 20260904210850 | 28 | 118 | 3.2 | 4.8 | 0.00 | 0.10 | 0.10 | 86 | 1012.8 |
| 20260904210349 | 28 | 46 | 0.0 | 3.2 | 0.00 | 0.10 | 0.10 | 87 | 1012.9 |
| 20260904205846 | 28 | 93 | 6.4 | 8.0 | 0.00 | 0.10 | 0.10 | 86 | 1013.0 |
| 20260904205341 | 28 | 105 | 4.8 | 6.4 | 0.00 | 0.10 | 0.10 | 89 | 1012.9 |
| 20260904204838 | 28 | 212 | 3.2 | 4.8 | 0.00 | 0.10 | 0.10 | 89 | 1012.7 |
| 20260904204333 | 27 | 10 | 1.6 | 3.2 | 0.00 | 0.10 | 0.10 | 90 | 1012.7 |
| 20260904203830 | 27 | 246 | 0.0 | 0.0 | 0.00 | 0.10 | 0.10 | 91 | 1012.4 |
| 20260904203326 | 27 | 155 | 0.0 | 1.6 | 0.00 | 0.10 | 0.10 | 91 | 1012.5 |
| 20260904202821 | 27 | 146 | 0.0 | 1.6 | 0.05 | 0.10 | 0.10 | 91 | 1012.3 |
| 20260904202317 | 27 | 158 | 0.0 | 3.2 | 0.13 | 0.10 | 0.10 | 90 | 1012.6 |
| 20260904201813 | 27 | 43 | 0.0 | 3.2 | 0.13 | 0.08 | 0.08 | 91 | 1012.4 |
| 20260904201313 | 27 | 248 | 1.6 | 4.8 | 0.13 | 0.08 | 0.08 | 89 | 1012.7 |
| 20260904200808 | 27 | 139 | 0.0 | 3.2 | 0.05 | 0.05 | 0.05 | 88 | 1012.6 |
| 20260904200301 | 27 | 302 | 0.0 | 4.8 | 0.00 | 0.05 | 0.05 | 87 | 1012.8 |
| 20260904195801 | 27 | 21 | 3.2 | 4.8 | 0.00 | 0.05 | 0.05 | 86 | 1013.2 |
| 20260904195300 | 28 | 248 | 3.2 | 6.4 | 0.00 | 0.05 | 0.05 | 86 | 1013.4 |
| 20260904194755 | 28 | 3 | 0.0 | 3.2 | 0.00 | 0.05 | 0.05 | 87 | 1013.6 |
| 20260904194254 | 28 | 292 | 3.2 | 3.2 | 0.00 | 0.05 | 0.05 | 86 | 1013.4 |
| 20260904193749 | 28 | 277 | 0.0 | 1.6 | 0.00 | 0.05 | 0.05 | 86 | 1013.7 |
| 20260904193245 | 28 | 250 | 0.0 | 3.2 | 0.00 | 0.05 | 0.05 | 85 | 1013.3 |
| 20260904192740 | 28 | 146 | 1.6 | 3.2 | 0.00 | 0.05 | 0.05 | 83 | 1013.5 |
| 20260904192235 | 28 | 9 | 0.0 | 3.2 | 0.00 | 0.05 | 0.05 | 82 | 1013.5 |
| 20260904191732 | 28 | 13 | 0.0 | 3.2 | 0.00 | 0.05 | 0.05 | 81 | 1013.1 |
| 20260904191228 | 28 | 230 | 0.0 | 1.6 | 0.00 | 0.05 | 0.05 | 84 | 1013.1 |
| 20260904190725 | 27 | 195 | 0.0 | 1.6 | 0.00 | 0.05 | 0.05 | 84 | 1013.2 |
| 20260904190220 | 27 | 133 | 1.6 | 3.2 | 0.05 | 0.05 | 0.05 | 84 | 1013.6 |
| 20260904185717 | 27 | 9 | 1.6 | 3.2 | 0.23 | 0.05 | 0.05 | 82 | 1013.7 |
| 20260904185217 | 28 | 16 | 0.0 | 4.8 | 0.23 | 0.05 | 0.05 | 84 | 1013.3 |
| 20260904184715 | 28 | 67 | 3.2 | 8.0 | 0.05 | 0.00 | 0.00 | 80 | 1013.4 |
| 20260904184211 | 29 | 108 | 4.8 | 6.4 | 0.00 | 0.00 | 0.00 | 78 | 1013.3 |
| 20260904183707 | 30 | 37 | 0.0 | 4.8 | 0.00 | 0.00 | 0.00 | 77 | 1013.2 |
| 20260904183201 | 30 | 250 | 0.0 | 4.8 | 0.00 | 0.00 | 0.00 | 76 | 1013.2 |
| 20260904182656 | 30 | 144 | 1.6 | 6.4 | 0.00 | 0.00 | 0.00 | 72 | 1013.5 |
| 20260904182151 | 31 | 29 | 4.8 | 9.7 | 0.00 | 0.00 | 0.00 | 71 | 1013.5 |
| 20260904181647 | 31 | 4 | 4.8 | 14.5 | 0.00 | 0.00 | 0.00 | 72 | 1013.3 |
| 20260904181141 | 31 | 342 | 3.2 | 6.4 | 0.00 | 0.00 | 0.00 | 74 | 1013.5 |
| 20260904180637 | 31 | 36 | 4.8 | 8.0 | 0.00 | 0.00 | 0.00 | 74 | 1013.5 |
| 20260904180126 | 31 | 330 | 3.2 | 12.9 | 0.00 | 0.00 | 0.00 | 74 | 1013.3 |
| 20260904175625 | 32 | 58 | 1.6 | 12.9 | 0.00 | 0.00 | 0.00 | 73 | 1013.4 |
| 20260904175124 | 32 | 76 | 8.0 | 14.5 | 0.00 | 0.00 | 0.00 | 72 | 1013.5 |
| 20260904174619 | 33 | 21 | 4.8 | 6.4 | 0.00 | 0.00 | 0.00 | 69 | 1013.7 |
| 20260904174115 | 32 | 87 | 3.2 | 4.8 | 0.00 | 0.00 | 0.00 | 72 | 1013.7 |
| 20260904173615 | 32 | 4 | 0.0 | 6.4 | 0.00 | 0.00 | 0.00 | 71 | 1013.5 |
| 20260904173111 | 32 | 337 | 3.2 | 3.2 | 0.00 | 0.00 | 0.00 | 65 | 1013.7 |
| 20260904172607 | 33 | 250 | 0.0 | 6.4 | 0.00 | 0.00 | 0.00 | 65 | 1013.6 |
| 20260904172106 | 33 | 164 | 1.6 | 4.8 | 0.00 | 0.00 | 0.00 | 65 | 1013.8 |
| 20260904171601 | 32 | 250 | 0.0 | 4.8 | 0.00 | 0.00 | 0.00 | 65 | 1013.8 |
| 20260904171056 | 32 | 220 | 0.0 | 3.2 | 0.00 | 0.00 | 0.00 | 66 | 1014.0 |
| 20260904170552 | 32 | 173 | 0.0 | 4.8 | 0.00 | 0.00 | 0.00 | 67 | 1014.2 |
| 20260904170048 | 32 | 339 | 1.6 | 3.2 | 0.00 | 0.00 | 0.00 | 68 | 1014.1 |
| 20260904165547 | 31 | 182 | 0.0 | 3.2 | 0.00 | 0.00 | 0.00 | 71 | 1014.1 |
| 20260904165046 | 31 | 68 | 1.6 | 4.8 | 0.00 | 0.00 | 0.00 | 71 | 1014.2 |
| 20260904164542 | 31 | 119 | 3.2 | 3.2 | 0.00 | 0.00 | 0.00 | 70 | 1014.4 |
| 20260904164037 | 31 | 277 | 1.6 | 6.4 | 0.00 | 0.00 | 0.00 | 70 | 1014.4 |
| 20260904163537 | 31 | 261 | 3.2 | 4.8 | 0.00 | 0.00 | 0.00 | 69 | 1014.3 |
| 20260904163032 | 32 | 20 | 0.0 | 3.2 | 0.00 | 0.00 | 0.00 | 66 | 1014.5 |
| 20260904162527 | 33 | 329 | 0.0 | 6.4 | 0.00 | 0.00 | 0.00 | 64 | 1014.4 |
| 20260904162022 | 32 | 352 | 1.6 | 4.8 | 0.00 | 0.00 | 0.00 | 65 | 1014.5 |
| 20260904161517 | 32 | 57 | 0.0 | 8.0 | 0.00 | 0.00 | 0.00 | 67 | 1014.5 |
| 20260904161012 | 32 | 291 | 1.6 | 4.8 | 0.00 | 0.00 | 0.00 | 65 | 1014.7 |
| 20260904160507 | 33 | 97 | 4.8 | 8.0 | 0.00 | 0.00 | 0.00 | 62 | 1015.0 |
| 20260904160004 | 33 | 264 | 1.6 | 6.4 | 0.00 | 0.00 | 0.00 | 65 | 1014.9 |
| 20260904155503 | 31 | 334 | 1.6 | 3.2 | 0.00 | 0.00 | 0.00 | 71 | 1014.9 |
| 20260904155001 | 31 | 69 | 0.0 | 4.8 | 0.00 | 0.00 | 0.00 | 71 | 1014.9 |
| 20260904154456 | 31 | 288 | 4.8 | 6.4 | 0.00 | 0.00 | 0.00 | 71 | 1015.1 |
| 20260904153951 | 31 | 322 | 1.6 | 3.2 | 0.00 | 0.00 | 0.00 | 73 | 1014.8 |
| 20260904153445 | 31 | 153 | 1.6 | 4.8 | 0.00 | 0.00 | 0.00 | 74 | 1014.9 |
| 20260904152942 | 30 | 308 | 3.2 | 3.2 | 0.00 | 0.00 | 0.00 | 75 | 1014.6 |
| 20260904152438 | 30 | 38 | 0.0 | 6.4 | 0.00 | 0.00 | 0.00 | 75 | 1014.7 |
| 20260904151938 | 30 | 194 | 0.0 | 3.2 | 0.00 | 0.00 | 0.00 | 76 | 1014.6 |
| 20260904151433 | 30 | 176 | 0.0 | 4.8 | 0.00 | 0.00 | 0.00 | 76 | 1014.4 |
| 20260904150927 | 30 | 302 | 0.0 | 3.2 | 0.00 | 0.00 | 0.00 | 75 | 1014.7 |
| 20260904150422 | 30 | 204 | 3.2 | 4.8 | 0.00 | 0.00 | 0.00 | 76 | 1014.7 |
| 20260904145920 | 30 | 46 | 1.6 | 4.8 | 0.00 | 0.00 | 0.00 | 76 | 1014.7 |
| 20260904145416 | 30 | 234 | 0.0 | 4.8 | 0.00 | 0.00 | 0.00 | 77 | 1014.6 |
| 20260904144912 | 30 | 13 | 0.0 | 3.2 | 0.00 | 0.00 | 0.00 | 75 | 1014.7 |
| 20260904144407 | 30 | 267 | 4.8 | 4.8 | 0.00 | 0.00 | 0.00 | 76 | 1014.7 |
| 20260904143903 | 30 | 69 | 3.2 | 4.8 | 0.00 | 0.00 | 0.00 | 76 | 1014.6 |
| 20260904143359 | 30 | 235 | 0.0 | 6.4 | 0.00 | 0.00 | 0.00 | 78 | 1014.5 |
| 20260904142856 | 30 | 199 | 0.0 | 3.2 | 0.00 | 0.00 | 0.00 | 80 | 1014.4 |
| 20260904142352 | 30 | 287 | 0.0 | 6.4 | 0.00 | 0.00 | 0.00 | 78 | 1014.5 |
| 20260904141851 | 29 | 295 | 1.6 | 8.0 | 0.00 | 0.00 | 0.00 | 79 | 1014.5 |
| 20260904141346 | 29 | 259 | 1.6 | 4.8 | 0.00 | 0.00 | 0.00 | 79 | 1014.3 |
| 20260904140843 | 29 | 306 | 3.2 | 6.4 | 0.00 | 0.00 | 0.00 | 79 | 1014.4 |
| 20260904140337 | 28 | 185 | 1.6 | 3.2 | 0.00 | 0.00 | 0.00 | 80 | 1014.4 |
| 20260904135836 | 28 | 258 | 3.2 | 6.4 | 0.00 | 0.00 | 0.00 | 81 | 1014.4 |
| 20260904135331 | 28 | 239 | 1.6 | 6.4 | 0.00 | 0.00 | 0.00 | 80 | 1014.5 |
| 20260904134827 | 28 | 107 | 4.8 | 8.0 | 0.00 | 0.00 | 0.00 | 80 | 1014.4 |
| 20260904134322 | 28 | 61 | 0.0 | 3.2 | 0.00 | 0.00 | 0.00 | 82 | 1014.4 |
| 20260904133822 | 28 | 317 | 0.0 | 4.8 | 0.00 | 0.00 | 0.00 | 83 | 1014.3 |
| 20260904133318 | 28 | 86 | 3.2 | 4.8 | 0.00 | 0.00 | 0.00 | 84 | 1014.2 |
| 20260904132817 | 28 | 298 | 3.2 | 4.8 | 0.00 | 0.00 | 0.00 | 84 | 1014.3 |
| 20260904132312 | 28 | 138 | 3.2 | 8.0 | 0.00 | 0.00 | 0.00 | 83 | 1014.3 |
| 20260904131812 | 28 | 274 | 0.0 | 3.2 | 0.00 | 0.00 | 0.00 | 85 | 1014.2 |
| 20260904131308 | 28 | 283 | 0.0 | 3.2 | 0.00 | 0.00 | 0.00 | 85 | 1014.4 |
| 20260904130808 | 28 | 58 | 0.0 | 3.2 | 0.00 | 0.00 | 0.00 | 85 | 1014.3 |
| 20260904130307 | 28 | 90 | 1.6 | 6.4 | 0.00 | 0.00 | 0.00 | 86 | 1014.6 |
| 20260904125803 | 28 | 303 | 0.0 | 3.2 | 0.00 | 0.00 | 0.00 | 87 | 1014.5 |
| 20260904125259 | 27 | 227 | 0.0 | 3.2 | 0.00 | 0.00 | 0.00 | 88 | 1014.7 |
| 20260904124753 | 27 | 296 | 0.0 | 4.8 | 0.00 | 0.00 | 0.00 | 89 | 1014.5 |
| 20260904124249 | 27 | 114 | 1.6 | 3.2 | 0.00 | 0.00 | 0.00 | 90 | 1014.2 |
| 20260904123749 | 27 | 161 | 0.0 | 4.8 | 0.00 | 0.00 | 0.00 | 90 | 1014.2 |
| 20260904123239 | 27 | 356 | 0.0 | 3.2 | 0.00 | 0.00 | 0.00 | 91 | 1014.4 |
| 20260904122734 | 27 | 98 | 0.0 | 3.2 | 0.00 | 0.00 | 0.00 | 91 | 1014.1 |
| 20260904122228 | 27 | 300 | 0.0 | 3.2 | 0.00 | 0.00 | 0.00 | 94 | 1014.0 |
| 20260904121724 | 26 | 190 | 0.0 | 3.2 | 0.00 | 0.00 | 0.00 | 97 | 1014.0 |
| 20260904121219 | 26 | 161 | 1.6 | 4.8 | 0.00 | 0.00 | 0.00 | 98 | 1014.1 |